TimeCST,TemperatureF,Dew PointF,Humidity,Sea Level PressureIn,VisibilityMPH,Wind Direction,Wind SpeedMPH,Gust SpeedMPH,PrecipitationIn,Events,Conditions,WindDirDegrees,DateUTC
12:15 AM,54.3,29.1,38,29.70,10.0,SW,18.4,-,N/A,,Clear,230,2013-11-17 06:15:00
12:35 AM,52.9,29.3,40,29.70,10.0,SW,18.4,-,N/A,,Clear,220,2013-11-17 06:35:00
12:55 AM,52.2,29.3,41,29.70,10.0,SW,16.1,-,N/A,,Clear,220,2013-11-17 06:55:00
1:15 AM,50.7,30.0,45,29.71,10.0,SW,11.5,-,N/A,,Clear,220,2013-11-17 07:15:00
1:35 AM,49.1,29.8,47,29.71,10.0,SW,11.5,-,N/A,,Clear,230,2013-11-17 07:35:00
1:55 AM,50.0,30.0,46,29.71,10.0,SW,13.8,-,N/A,,Clear,230,2013-11-17 07:55:00
2:15 AM,50.9,30.2,45,29.72,10.0,WSW,11.5,-,N/A,,Clear,240,2013-11-17 08:15:00
2:35 AM,49.1,30.0,48,29.73,10.0,SW,13.8,-,N/A,,Clear,230,2013-11-17 08:35:00
2:55 AM,49.6,30.4,48,29.74,10.0,WSW,12.7,-,N/A,,Clear,240,2013-11-17 08:55:00
3:15 AM,54.0,29.5,39,29.74,10.0,WSW,17.3,21.9,N/A,,Clear,240,2013-11-17 09:15:00
3:35 AM,54.1,28.6,37,29.73,10.0,WSW,17.3,23.0,N/A,,Clear,240,2013-11-17 09:35:00
3:55 AM,52.7,28.2,39,29.75,10.0,WSW,12.7,-,N/A,,Clear,240,2013-11-17 09:55:00
4:15 AM,51.8,28.0,40,29.74,10.0,WSW,16.1,-,N/A,,Clear,250,2013-11-17 10:15:00
4:35 AM,51.3,27.5,40,29.75,10.0,WSW,15.0,-,N/A,,Clear,250,2013-11-17 10:35:00
4:55 AM,52.7,26.6,36,29.75,10.0,WSW,19.6,-,N/A,,Clear,250,2013-11-17 10:55:00
5:15 AM,52.0,27.0,38,29.76,10.0,WSW,15.0,-,N/A,,Clear,250,2013-11-17 11:15:00
5:35 AM,51.1,27.3,40,29.77,10.0,WSW,15.0,-,N/A,,Clear,250,2013-11-17 11:35:00
5:55 AM,48.2,27.7,45,29.78,10.0,West,12.7,-,N/A,,Clear,260,2013-11-17 11:55:00
6:15 AM,46.8,27.9,48,29.79,10.0,West,11.5,-,N/A,,Clear,260,2013-11-17 12:15:00
6:35 AM,45.9,27.9,49,29.80,10.0,WSW,13.8,-,N/A,,Clear,250,2013-11-17 12:35:00
6:55 AM,47.1,28.2,48,29.80,10.0,WSW,11.5,17.3,N/A,,Clear,250,2013-11-17 12:55:00
7:15 AM,46.0,27.9,49,29.81,10.0,WSW,13.8,-,N/A,,Clear,250,2013-11-17 13:15:00
7:35 AM,46.6,28.0,49,29.81,10.0,WSW,15.0,-,N/A,,Clear,240,2013-11-17 13:35:00
7:55 AM,48.0,28.4,47,29.84,10.0,WSW,11.5,-,N/A,,Clear,250,2013-11-17 13:55:00
8:15 AM,50.0,28.8,44,29.84,10.0,WSW,15.0,-,N/A,,Clear,250,2013-11-17 14:15:00
8:35 AM,52.2,29.1,41,29.85,10.0,WSW,15.0,19.6,N/A,,Clear,240,2013-11-17 14:35:00
8:55 AM,54.1,29.3,39,29.86,10.0,WSW,17.3,24.2,N/A,,Clear,250,2013-11-17 14:55:00
9:15 AM,56.3,29.1,35,29.87,10.0,West,23.0,28.8,N/A,,Clear,260,2013-11-17 15:15:00
9:35 AM,57.6,28.9,34,29.88,10.0,WSW,27.6,31.1,N/A,,Clear,250,2013-11-17 15:35:00
9:55 AM,59.2,28.8,31,29.89,10.0,West,23.0,33.4,N/A,,Clear,260,2013-11-17 15:55:00
10:15 AM,61.0,28.8,30,29.90,10.0,West,20.7,27.6,N/A,,Clear,260,2013-11-17 16:15:00
10:35 AM,61.7,28.4,28,29.91,10.0,West,20.7,27.6,N/A,,Clear,260,2013-11-17 16:35:00
10:55 AM,63.9,28.4,26,29.92,10.0,West,19.6,-,N/A,,Clear,270,2013-11-17 16:55:00
11:15 AM,64.8,27.5,25,29.92,10.0,West,19.6,-,N/A,,Clear,270,2013-11-17 17:15:00
11:35 AM,66.4,27.0,23,29.92,10.0,WNW,19.6,-,N/A,,Clear,290,2013-11-17 17:35:00
11:55 AM,67.6,26.6,21,29.91,10.0,WNW,15.0,-,N/A,,Clear,300,2013-11-17 17:55:00
12:15 PM,-9999,-9999,N/A,29.91,10.0,West,15.0,-,N/A,,Clear,280,2013-11-17 18:15:00
12:35 PM,-9999,-9999,N/A,29.90,10.0,WNW,11.5,16.1,N/A,,Clear,290,2013-11-17 18:35:00
12:55 PM,-9999,-9999,N/A,29.91,10.0,West,6.9,17.3,N/A,,Clear,270,2013-11-17 18:55:00
1:15 PM,-9999,-9999,N/A,29.90,10.0,West,5.8,-,N/A,,Clear,270,2013-11-17 19:15:00
1:35 PM,-9999,-9999,N/A,29.90,10.0,NW,8.1,-,N/A,,Clear,320,2013-11-17 19:35:00
1:55 PM,-9999,-9999,N/A,29.90,10.0,WNW,10.4,-,N/A,,Clear,290,2013-11-17 19:55:00
2:15 PM,-9999,-9999,N/A,29.90,10.0,Calm,Calm,-,N/A,,Clear,0,2013-11-17 20:15:00
2:35 PM,-9999,-9999,N/A,29.90,10.0,Calm,Calm,-,N/A,,Clear,0,2013-11-17 20:35:00
2:55 PM,-9999,-9999,N/A,29.91,10.0,West,4.6,-,N/A,,Clear,280,2013-11-17 20:55:00
3:15 PM,-9999,-9999,N/A,29.91,10.0,West,3.5,-,N/A,,Clear,270,2013-11-17 21:15:00
3:35 PM,-9999,-9999,N/A,29.92,10.0,WSW,4.6,-,N/A,,Clear,250,2013-11-17 21:35:00
3:55 PM,-9999,-9999,N/A,29.93,10.0,NNW,4.6,-,N/A,,Clear,340,2013-11-17 21:55:00
4:15 PM,-9999,-9999,N/A,29.93,10.0,NNW,3.5,-,N/A,,Clear,330,2013-11-17 22:15:00
4:35 PM,-9999,-9999,N/A,29.94,10.0,Calm,Calm,-,N/A,,Clear,0,2013-11-17 22:35:00
4:55 PM,-9999,-9999,N/A,29.95,10.0,Calm,Calm,-,N/A,,Clear,0,2013-11-17 22:55:00
5:15 PM,-9999,-9999,N/A,29.96,10.0,Calm,Calm,-,N/A,,Clear,0,2013-11-17 23:15:00
5:35 PM,-9999,-9999,N/A,29.96,10.0,Calm,Calm,-,N/A,,Clear,0,2013-11-17 23:35:00
5:55 PM,62.6,21.9,21,29.97,10.0,Calm,Calm,-,N/A,,Clear,0,2013-11-17 23:55:00
6:15 PM,61.2,21.9,22,29.98,10.0,Calm,Calm,-,N/A,,Clear,0,2013-11-18 00:15:00
6:35 PM,57.6,21.9,25,29.99,2.5,Calm,Calm,-,N/A,,Haze,0,2013-11-18 00:35:00
6:55 PM,54.0,20.7,27,30.00,10.0,East,3.5,-,N/A,,Clear,80,2013-11-18 00:55:00
7:15 PM,52.0,20.1,29,30.02,10.0,South,4.6,-,N/A,,Clear,170,2013-11-18 01:15:00
7:35 PM,52.9,21.2,29,30.02,10.0,Calm,Calm,-,N/A,,Clear,0,2013-11-18 01:35:00
7:55 PM,53.2,20.8,28,30.02,10.0,SE,3.5,-,N/A,,Clear,130,2013-11-18 01:55:00
8:15 PM,53.1,20.7,28,30.03,10.0,East,4.6,-,N/A,,Clear,90,2013-11-18 02:15:00
8:35 PM,48.2,19.0,32,30.03,10.0,East,6.9,-,N/A,,Clear,100,2013-11-18 02:35:00
8:55 PM,45.9,20.7,37,30.04,10.0,SE,10.4,-,N/A,,Clear,130,2013-11-18 02:55:00
9:15 PM,52.5,25.7,35,30.04,10.0,ESE,9.2,-,N/A,,Clear,120,2013-11-18 03:15:00
9:35 PM,53.6,26.6,35,30.05,10.0,SE,15.0,20.7,N/A,,Clear,130,2013-11-18 03:35:00
9:55 PM,53.8,27.0,36,30.07,10.0,SE,15.0,19.6,N/A,,Clear,140,2013-11-18 03:55:00
10:15 PM,52.7,27.3,38,30.07,10.0,SE,16.1,-,N/A,,Clear,140,2013-11-18 04:15:00
10:35 PM,53.1,27.5,37,30.08,10.0,SE,15.0,20.7,N/A,,Clear,130,2013-11-18 04:35:00
10:55 PM,48.9,27.3,43,30.10,10.0,East,8.1,-,N/A,,Clear,90,2013-11-18 04:55:00
11:15 PM,48.7,27.9,44,30.11,10.0,East,6.9,-,N/A,,Clear,80,2013-11-18 05:15:00
11:35 PM,46.0,27.9,49,30.11,10.0,ESE,8.1,-,N/A,,Clear,120,2013-11-18 05:35:00
11:55 PM,45.7,28.0,50,30.12,10.0,ESE,8.1,-,N/A,,Clear,110,2013-11-18 05:55:00